Regional Weather Roundup
Issued by NWS

Home | Current Version | Previous Version | Graphics & Text | Print | Product List | Glossary On
Versions: 1 2 3 4 5 6 7 8 9 10 11 12 13 14 15 16 17 18 19 20 21 22 23 24 25 26 27 28 29 30 31 32 33 34 35 36 37 38 39 40 41 42 43 44 45 46 47 48 49 50
000
ASUS43 KDTX 031210
RWRMI
MICHIGAN HOURLY REGIONAL WEATHER ROUNDUP
NATIONAL WEATHER SERVICE DETROIT/PONTIAC MI
800 AM EDT TUE MAY 03 2016

NOTE: "FAIR" INDICATES FEW OR NO CLOUDS BELOW 12,000 FEET WITH NO
SIGNIFICANT WEATHER AND/OR OBSTRUCTION TO VISIBILITY.

MIZ047>049-052>055-059>063-066>070-074>076-081>083-031300-
SOUTHEAST LOWER MICHIGAN

CITY           SKY/WX    TMP DP  RH WIND       PRES   REMARKS
ADRIAN         CLOUDY    50  43  77 N3        29.95
6HR MIN TEMP:  47; 6HR MAX TEMP:  50;

ALMA           SUNNY     42  42 100 CALM      29.94F
ANN ARBOR      SUNNY     45  44  97 N3        29.94R FOG
BAD AXE        SUNNY     41  38  91 CALM      29.94F
CARO           SUNNY     39  37  92 CALM      29.93F
DETROIT CITY   CLOUDY    45  40  82 CALM      29.94S
6HR MIN TEMP:  40; 6HR MAX TEMP:  45;

DETROIT        FOG       45  43  93 CALM      29.94F VSB 1/8
6HR MIN TEMP:  41; 6HR MAX TEMP:  49;

FLINT          MOSUNNY   42  39  89 CALM      29.95S
6HR MIN TEMP:  34; 6HR MAX TEMP:  42;

GROSSE ILE     FOG       46  45  93 CALM      29.93R VSB 1/4
HILLSDALE      CLOUDY    48  42  82 CALM      29.94S
HOWELL         SUNNY     44  43  99 CALM      29.94S

CITY           SKY/WX    TMP DP  RH WIND       PRES   REMARKS
JACKSON        SUNNY     46  44  93 CALM      29.94S
6HR MIN TEMP:  41; 6HR MAX TEMP:  48;

LAMBERTVILLE   CLOUDY    50  48  92 CALM      29.94S FOG
6HR MIN TEMP:  47; 6HR MAX TEMP:  50;

LANSING        SUNNY     43  41  93 CALM      29.95S
6HR MIN TEMP:  36; 6HR MAX TEMP:  45;

LAPEER         FAIR      38  38 100 CALM      29.95S
6HR MIN TEMP:  32; 6HR MAX TEMP:  38;

MASON          SUNNY     42  41  97 CALM      29.95R
MONROE         FOG       46  46 100 CALM      29.93S VSB 3/4
6HR MIN TEMP:  41; 6HR MAX TEMP:  48;

MT. CLEMENS    CLOUDY    44  42  91 NW6       29.93
6HR MIN TEMP:  37; 6HR MAX TEMP:  44;

PONTIAC        MOSUNNY   43  41  93 CALM      29.93S FOG
6HR MIN TEMP:  36; 6HR MAX TEMP:  43;

PORT HOPE        N/A     46  32  58 SW5       29.92S
6HR MIN TEMP:  35; 6HR MAX TEMP:  46;

TRI CITIES     SUNNY     46  36  68 SW6       29.94S
6HR MIN TEMP:  38; 6HR MAX TEMP:  47;

MIDLAND        FAIR      39  36  89 CALM      29.93F
6HR MIN TEMP:  32; 6HR MAX TEMP:  39;

TROY           CLOUDY    45  42  89 CALM      29.95S
SAGINAW HB     SUNNY     43  36  75 CALM      29.93F
$$
MIZ043>046-050>051-056>058-064>065-071>073-077>080-031300-
SOUTHWEST LOWER MICHIGAN

CITY           SKY/WX    TMP DP  RH WIND       PRES   REMARKS
BATTLE CREEK   SUNNY     44  42  93 CALM      29.95S
6HR MIN TEMP:  39; 6HR MAX TEMP:  49;

BENTON HARBOR  SUNNY     40  37  89 CALM      29.97R
6HR MIN TEMP:  35; 6HR MAX TEMP:  40;

BIG RAPIDS     SUNNY     37  34  90 CALM      29.93S
6HR MIN TEMP:  33; 6HR MAX TEMP:  40;

COLDWATER      CLOUDY    49  46  89 CALM      29.95S
6HR MIN TEMP:  46; 6HR MAX TEMP:  49;

FREMONT        FAIR      39  39 100 CALM      29.94S
6HR MIN TEMP:  34; 6HR MAX TEMP:  41;

HOLLAND        SUNNY     43  40  89 W5        29.96S
6HR MIN TEMP:  37; 6HR MAX TEMP:  43;

GRAND RAPIDS   MOSUNNY   45  40  82 W6        29.95S
6HR MIN TEMP:  38; 6HR MAX TEMP:  45;

IONIA          FAIR      42  40  94 CALM      29.94S
6HR MIN TEMP:  37; 6HR MAX TEMP:  43;

KALAMAZOO      SUNNY     44  41  89 CALM      29.96R
6HR MIN TEMP:  39; 6HR MAX TEMP:  49;

LUDINGTON      SUNNY     39  37  93 CALM      29.93S
6HR MIN TEMP:  32; 6HR MAX TEMP:  40;

MARSHALL       MOSUNNY   43  42  98 CALM      29.94S FOG
6HR MIN TEMP:  37; 6HR MAX TEMP:  48;

MOUNT PLEASANT SUNNY     42  40  95 CALM      29.93S
6HR MIN TEMP:  35; 6HR MAX TEMP:  42;

MUSKEGON       MOSUNNY   42  38  85 CALM      29.95S
6HR MIN TEMP:  34; 6HR MAX TEMP:  42;

SOUTH HAVEN    SUNNY     39  39 100 CALM      29.97S
$$
MIZ016>042-031300-
NORTHERN LOWER MICHIGAN

CITY           SKY/WX    TMP DP  RH WIND       PRES   REMARKS
ALPENA         SUNNY     44  33  65 CALM      29.90F
6HR MIN TEMP:  32; 6HR MAX TEMP:  44;

BEAVER ISLAND  MOSUNNY   46  31  56 S5        29.86F
6HR MIN TEMP:  31; 6HR MAX TEMP:  46;

BELLAIRE       SUNNY     38  34  85 CALM      29.91S
6HR MIN TEMP:  31; 6HR MAX TEMP:  38;

CADILLAC       SUNNY     38  35  89 CALM      29.91S
CHARLEVOIX     SUNNY     43  35  72 SE5       29.91F
FRANKFORT      SUNNY     44  36  73 CALM      29.90F
GAYLORD        SUNNY     40  31  70 CALM      29.89F
6HR MIN TEMP:  32; 6HR MAX TEMP:  41;

GRAYLING       SUNNY     37  32  81 CALM      29.91S
HARBOR SPRINGS SUNNY     43  33  67 CALM      29.88F
HOUGHTON LAKE  SUNNY     39  35  86 CALM      29.91F
6HR MIN TEMP:  32; 6HR MAX TEMP:  39;

MANISTEE       SUNNY     34  30  86 E5        29.93S WCI  30
OSCODA         SUNNY     43  37  77 SW7       29.92S
6HR MIN TEMP:  32; 6HR MAX TEMP:  43;

PELLSTON       SUNNY     37  32  82 CALM      29.88F
6HR MIN TEMP:  27; 6HR MAX TEMP:  37;

ROGERS CITY    SUNNY     45  35  66 CALM      29.90S
TRAVERSE CITY  MOSUNNY   45  36  70 CALM      29.89F
6HR MIN TEMP:  34; 6HR MAX TEMP:  45;

$$
MIZ007>008-015-031300-
EASTERN UPPER MICHIGAN

CITY           SKY/WX    TMP DP  RH WIND       PRES   REMARKS
KINROSS          N/A     43  34  70 S5        29.87S
6HR MIN TEMP:  30; 6HR MAX TEMP:  43;

MACKINAC ISLAN CLOUDY    44  32  62 S6        29.87F
6HR MIN TEMP:  37; 6HR MAX TEMP:  44;

NEWBERRY       SUNNY     42  35  76 S7        29.83F
6HR MIN TEMP:  31; 6HR MAX TEMP:  42;

S. S. MARIE    CLOUDY    38  34  85 CALM      29.86F
6HR MIN TEMP:  35; 6HR MAX TEMP:  41;

MUNISING         N/A     44  33  65 S8        29.80F
6HR MIN TEMP:  32; 6HR MAX TEMP:  44;

$$
MIZ004>006-011>014-085-031300-
CENTRAL UPPER MICHIGAN

CITY           SKY/WX    TMP DP  RH WIND       PRES   REMARKS
MANISTIQUE     SUNNY     41  37  84 S7        29.83F
6HR MIN TEMP:  30; 6HR MAX TEMP:  41;

ESCANABA       SUNNY     37  36  93 CALM      29.83F
6HR MIN TEMP:  30; 6HR MAX TEMP:  37;

MENOMINEE      SUNNY     46  34  61 W6        29.86S
6HR MIN TEMP:  39; 6HR MAX TEMP:  48;

SAWYER-GWINN   SUNNY     36  32  87 SW3       29.82R
$$
MIZ001>003-009>011-084-031300-
WESTERN UPPER MICHIGAN

CITY           SKY/WX    TMP DP  RH WIND       PRES   REMARKS
IRON MOUNTAIN  CLOUDY    41  32  70 N3        29.82F
6HR MIN TEMP:  30; 6HR MAX TEMP:  41;

HOUGHTON       CLOUDY    55  30  38 W16G23    29.74F
6HR MIN TEMP:  43; 6HR MAX TEMP:  55;

COPPER HARBOR    N/A     48  34  58 VRB3      29.71F
6HR MIN TEMP:  43; 6HR MAX TEMP:  51;

IRONWOOD         N/A     52  32  46 SW9       29.78F
6HR MIN TEMP:  36; 6HR MAX TEMP:  52;

$$

ABBREVIATIONS USED IN REMARKS
   TC - TEMPERATURE IN CELSIUS
  WCI - WIND CHILL INDEX
   HX - HEAT INDEX
  VSB - VISIBILITY





USA.gov is the U.S. government's official web portal to all federal, state and local government web resources and services.